Overview Statistics Trail Chart Weather Telemetry Raw packets
 

This is the latest recevied weather packets stored in our database for station/object PY4BN-13. If no packets are shown the sender has not sent any weather packets the latest 10 day(s).

<< 11 12 13 14 15 16 17 >>
Time Temp. Humidity Pressure Rain* Wind** Luminosity Snow
1777566600 27.22° C 47% 905.9 hPa - - - -
1777565700 27.22° C 47% 905.8 hPa - - - -
1777564800 27.22° C 46% 906 hPa - - - -
1777563900 27.22° C 46% 906.5 hPa - - - -
1777563000 27.22° C 46% 906.6 hPa - - - -
1777562100 27.22° C 44% 906.9 hPa - - - -
1777561200 27.22° C 43% 907.3 hPa - - - -
1777560300 27.22° C 45% 907.5 hPa - - - -
1777559400 27.22° C 45% 907.8 hPa - - - -
1777558500 27.22° C 45% 908.1 hPa - - - -
1777557600 27.22° C 46% 908.2 hPa - - - -
1777556700 27.22° C 47% 908.8 hPa - - - -
1777555800 27.22° C 47% 909 hPa - - - -
1777554900 27.22° C 47% 909.1 hPa - - - -
1777554000 27.22° C 48% 909.4 hPa - - - -
1777553100 27.22° C 46% 909.5 hPa - - - -
1777552200 27.22° C 48% 909.5 hPa - - - -
1777551300 27.22° C 48% 909.5 hPa - - - -
1777550400 27.22° C 47% 909.3 hPa - - - -
1777549500 27.22° C 47% 909.1 hPa - - - -
1777548600 27.22° C 47% 909.2 hPa - - - -
1777547700 27.22° C 47% 909.1 hPa - - - -
1777546800 27.22° C 46% 909 hPa - - - -
1777545900 27.22° C 46% 909 hPa - - - -
1777545000 27.22° C 49% 908.9 hPa - - - -

* Rain since midnight (hover to see other rain measurements)
** Current wind speed in m/s (hover to see current wind gust speed)